Location: Unspecified
(0.0000°N, 0.0000°E)
Time: 02:26:24
(UTC+00:00)

Transit 2A Rocket - All Passes

Search period start: 03 December 2016 00:00
Search period end: 13 December 2016 00:00
Orbit: 590 x 914 km, 66.7° (Epoch: 02 December)

Date Brightness Start Highest point End Pass type
(mag) Time Alt. Az. Time Alt. Az. Time Alt. Az.
03 Dec - 07:28:21 10° N 07:32:31 54° ENE 07:36:45 10° SSE daylight
03 Dec - 18:17:38 10° SE 18:20:22 13° ESE 18:23:04 10° E visible
03 Dec - 19:56:55 10° SW 20:02:50 53° WNW 20:08:38 10° N visible
04 Dec - 06:46:55 10° NNE 06:50:15 22° ENE 06:53:37 10° ESE daylight
04 Dec - 08:30:24 10° W 08:32:32 13° WSW 08:34:40 10° SW daylight
04 Dec - 19:14:25 10° SSW 19:20:32 80° ESE 19:26:32 10° NNE visible
05 Dec - 07:46:25 10° NW 07:50:11 31° WSW 07:54:05 10° S daylight
05 Dec - 18:32:31 10° S 18:38:13 41° ESE 18:43:50 10° NE visible
05 Dec - 20:16:48 10° WSW 20:20:36 17° WNW 20:24:22 10° NNW visible
06 Dec - 07:03:40 10° NNW 07:07:55 79° WSW 07:12:17 10° SSE daylight
06 Dec - 17:51:23 10° SSE 17:55:53 21° ESE 18:00:20 10° ENE daylight
06 Dec - 19:32:53 10° SW 19:38:18 33° WNW 19:43:37 10° N visible
07 Dec - 06:21:38 10° N 06:25:39 40° ENE 06:29:44 10° SE daylight
07 Dec - 17:13:13 10° ESE 17:13:31 10° ESE 17:13:47 10° ESE daylight
07 Dec - 18:49:57 10° SSW 18:56:01 66° WNW 19:01:56 10° N visible
08 Dec - 05:40:35 10° NNE 05:43:23 17° ENE 05:46:12 10° ESE daylight
08 Dec - 07:22:44 10° WNW 07:25:38 18° WSW 07:28:36 10° SSW daylight
08 Dec - 18:07:39 10° S 18:13:43 65° ESE 18:19:37 10° NNE visible
09 Dec - 06:39:18 10° NW 06:43:19 42° WSW 06:47:28 10° S daylight
09 Dec - 17:25:58 10° S 17:31:24 33° ESE 17:36:43 10° NE daylight
09 Dec - 19:09:18 10° WSW 19:13:47 21° WNW 19:18:10 10° NNW visible
10 Dec - 05:56:47 10° NNW 06:01:02 77° ENE 06:05:25 10° SSE daylight
10 Dec - 16:45:13 10° SSE 16:49:02 17° ESE 16:52:49 10° ENE daylight
10 Dec - 18:25:48 10° SW 18:31:29 41° WNW 18:37:02 10° N visible
11 Dec - 05:15:01 10° N 05:18:46 30° ENE 05:22:36 10° SE visible
11 Dec - 17:43:05 10° SSW 17:49:12 81° WNW 17:55:09 10° NNE daylight
12 Dec - 04:34:33 10° NE 04:36:30 13° ENE 04:38:28 10° E visible
12 Dec - 06:15:19 10° WNW 06:18:45 23° WSW 06:22:16 10° SSW daylight
12 Dec - 17:00:58 10° S 17:06:54 52° ESE 17:12:40 10° NE daylight
12 Dec - 18:46:37 10° W 18:49:15 13° WNW 18:51:51 10° NW visible
